COSMOS 2251 DEB, 37095

Orbit data source: Space-Track

COSMOS 2251 DEB, 37095 is space debris in LEO originally from a launch on Wed, 16 Jun 1993 UTC launched from the Plesetsk Missile And Space Complex (PKMTR). The debris from Iridium 33, an American commercial communications satellite, has been tracked extensively since its accidental collision with the defunct Russian satellite Cosmos 2251 in 2009. This event, occurring at high speed in low Earth orbit (LEO), generated thousands of pieces of space debris, significantly increasing the risk of further collisions. The Iridium 33 debris cloud has impacted space traffic management and orbital debris mitigation strategies, making it a subject of ongoing study in space situational awareness.

Loading next visibility...
Identifier
37095, 1993-036BFR
Orbit
LEO
Country
Flag of CISCIS
Related business
Manufacturer
Unknown
Mission
Spacecraft
Bus & Motor
Unknown
Mass
Unknown
Launch date (UTC)
1993-06-16 (33 years ago)
Launch vehicle
Unknown
Launch site
Plesetsk Missile And Space Complex (PKMTR)
Object type
Payload
Rocket body
Debris
Shape & HBR
Unknown shape, 0.1 m
Radar Cross Section
Small (<0.1 m²)

Expand to show TLE details & history
Last TLE update: 1 week ago

TLE from 1 week ago
0 COSMOS 2251 DEB
1 37095U 93036BFR 26247.88745025  .00001039  00000-0  56546-3 0  9997
2 37095  73.8413  80.6256 0192449  90.9700 271.3489 14.04444175663714
Epoch: 2026-09-04T21:17Z
TLE epoch observation values (Epoch: 2026-09-04T21:17:55.701Z)
Latitude
-0.00007°
Longitude
137.13867°
Altitude
880.409 km
Speed
7.413 km/s
True Right ascension
05h 22m 30s
True Declination
0° 00' 00"
Sunlit
Object was in daylight at epoch
Visualization orbit readout
Latitude
Unknown
Longitude
Unknown
Altitude
Unknown
Speed
Unknown
Apparent Right ascension
Unknown
Apparent Declination
Unknown
Sunlit
N/A
Visualization observer readout
Local Sidereal Time
13:58:39
Azimuth
Unknown
Elevation
Unknown
Doppler factor
Unknown
Orbital elements
Apogee altitude
1,015.728 km
Perigee altitude
736.513 km
Semi-major axis
7,254.258 km
Eccentricity
0.01924
Inclination
73.8413°
RAAN
80.6256°
Arg. of periapsis
90.97°
True anomaly
269.1435°
Mean anomaly
271.3489°
Eccentric anomaly
270.24626°
Mean motion
3.5128 °/min
Orbital period
102.48 mins
BSTAR
0.00056546
Loading maneuver chart data...
Computing Atmospheric mass density...

Documentation

Showing up to 5 results
|